Location: Luz Observatory
(34.5000°N, 117.2833°W)
Time: 07:12:05
(UTC-07:00)

Daily predictions for brighter satellites

Satellite Brightness Start Highest point End
(mag) Time Altitude Azimuth Time Altitude Azimuth Time Altitude Azimuth
Chandra Rocket (1) 4.4 19:59:16 10° WSW 20:05:07 62° S 20:29:47 10° ESE
Cosmos 1726 Rocket 3.9 20:18:12 10° N 20:22:31 48° E 20:26:45 10° SSE
OTV 4 3.0 20:24:38 10° WSW 20:25:57 12° SSW 20:27:16 10° S
Cosmos 2278 Rocket 2.7 20:21:56 10° NNW 20:27:34 65° WSW 20:33:09 10° S
ATLAS 3B R/B 4.1 20:29:34 10° SSE 20:34:44 20° ESE 20:39:52 10° ENE
CZ-2D R/B 3.5 20:31:29 10° S 20:35:22 77° WSW 20:39:18 10° NNW
Abrixas rocket 3.5 20:32:56 10° NW 20:36:06 34° NNE 20:39:14 10° E
Cosmos 1666 3.7 20:34:22 10° NNE 20:37:50 30° ENE 20:41:01 11° SE
Cosmos 1602 Rocket 4.4 20:35:07 10° SSE 20:39:03 31° E 20:42:59 10° NNE
Cosmos 2058 Rocket 3.2 20:34:49 10° N 20:39:07 56° E 20:43:23 10° SSE
Cosmos 1500 4.3 20:35:34 10° NNW 20:39:18 46° W 20:43:01 10° SSW
ERS-1 Rocket 3.2 20:37:35 10° SSE 20:42:25 52° ENE 20:47:18 10° N
APEX 4.4 20:39:14 10° N 20:43:20 42° ENE 20:47:58 13° SE
SL-16 R/B 2.9 20:38:44 10° SW 20:44:16 59° WNW 20:49:52 10° NNE
YAOGAN 11 4.0 20:40:40 10° SSE 20:45:01 81° ENE 20:49:22 10° N
ISS -3.1 20:42:11 10° SSW 20:45:19 47° SE 20:48:28 10° ENE
Atlas Centaur 2 3.1 20:38:57 10° WSW 20:45:49 52° SSE 20:53:51 10° E
Cosmos 2285 Rocket 4.0 20:42:29 10° NNW 20:48:49 71° ENE 20:55:09 10° SSE
Envisat 3.9 20:45:44 13° SE 20:49:34 31° ENE 20:54:00 10° N
PSLV R/B 4.0 20:46:42 10° W 20:50:10 57° NNW 20:53:41 10° ENE
Meteor 1-15 Rocket 4.4 20:44:50 10° N 20:50:20 55° E 20:55:45 11° SSE
Cosmos 1743 3.4 20:50:35 10° NNW 20:54:20 54° W 20:58:03 10° S
deb Chang Zheng 4 3.5 20:50:55 10° NNE 20:55:20 79° ESE 20:59:41 10° S
Cosmos 1110 Rocket 4.3 20:50:11 10° NNW 20:55:27 69° WSW 21:00:38 10° S
Cosmos 1939 Rocket 3.6 20:52:34 15° SE 20:55:36 39° ENE 20:59:29 10° N
Cosmos 1464 Rocket 3.9 20:51:14 10° N 20:57:23 74° E 21:03:33 10° SSE
CZ-4 DEB 4.3 20:58:10 10° SSW 21:01:09 35° W 21:04:09 10° NNW
ATLAS CENTAUR Rocket 3.9 20:56:23 10° WSW 21:02:11 58° SSE 21:38:02 10° E
ATLAS CENTAUR Rocket 3.9 20:56:22 10° WSW 21:02:11 58° SSE 21:38:02 10° E
ATLAS CENTAUR Rocket 3.9 20:56:23 10° WSW 21:02:12 58° SSE 21:38:01 10° E
ATLAS CENTAUR Rocket 3.9 20:56:23 10° WSW 21:02:12 58° SSE 21:38:02 10° E
ATLAS CENTAUR Rocket 3.9 20:56:22 10° WSW 21:02:12 58° SSE 21:38:01 10° E
H-2A R/B 2.0 20:59:32 14° SSE 21:03:08 71° ENE 21:07:27 10° N
CZ-4 SHROUD 4.3 21:04:33 23° ESE 21:05:37 29° ENE 21:08:24 10° NNE
SPOT 5 3.4 21:04:13 20° SE 21:06:41 35° ENE 21:10:39 10° N
ALOS 3.4 21:03:05 10° S 21:07:29 42° W 21:11:55 10° NNW
COSMOS 2455 2.8 21:05:26 10° SSW 21:11:19 63° ESE 21:17:16 10° NNE
Cosmos 1626 Rocket 3.5 21:07:07 10° S 21:11:33 77° E 21:15:59 10° N
Cosmos 1603 3.7 21:07:44 10° SSW 21:13:21 90° WNW 21:18:59 10° NNE
YAOGAN 6 4.3 21:14:14 18° E 21:14:58 19° ENE 21:17:42 10° NNE
Cosmos 2034 Rocket 4.0 21:10:22 10° N 21:16:45 79° E 21:22:13 14° S
Meteor 2-9 Rocket 4.5 21:15:41 10° NNW 21:21:23 72° W 21:26:56 11° S
Cosmos 2228 3.3 21:17:41 10° NNW 21:22:04 68° W 21:25:39 15° S
Cosmos 1346 Rocket 4.4 21:24:23 18° ENE 21:24:23 18° ENE 21:26:34 10° NE
BREEZE-M DEB (TANK) 4.2 21:21:54 10° WSW 21:27:04 37° NW 21:29:22 10° NNE
PSLV R/B 3.1 21:27:45 50° SE 21:28:18 63° ENE 21:31:24 10° N
Cosmos 1943 3.2 21:32:15 15° S 21:36:45 56° ESE 21:42:19 10° NNE
CZ-2C R/B 3.5 21:36:39 10° WSW 21:37:33 12° W 21:38:28 10° WNW
Lacrosse 4 Rocket 2.3 21:39:17 29° E 21:39:17 29° E 21:42:00 10° NE
H-2A R/B 3.8 21:38:18 15° ENE 21:39:14 16° ENE 21:42:08 10° NNE
MetOp-A 4.2 21:37:01 31° SE 21:39:32 65° ENE 21:44:51 10° N
Delta 168 4.3 21:40:53 10° SW 21:42:58 22° SSW 21:42:58 22° SSW
Cosmos 1943 Rocket 4.2 21:42:00 10° NNE 21:44:28 13° NE 21:46:20 11° ENE
Cosmos 1190 Rocket 4.1 21:43:21 32° SSE 21:45:31 54° ESE 21:50:41 10° NNE
SeaSat 1 2.4 21:44:08 38° SE 21:46:02 76° ENE 21:50:59 10° NNW
Geosat 4.4 21:41:48 10° NE 21:46:29 38° ESE 21:46:45 38° ESE
SPOT 1/Viking Rocket 3.8 21:45:58 38° SE 21:47:38 53° ENE 21:52:39 10° N
UNK 4.4 21:47:13 10° N 21:52:41 74° WNW 21:58:26 10° SSW
CZ-4B R/B 3.6 21:53:32 10° N 21:58:39 79° WNW 22:02:04 22° SSW
Cosmos 1461 3.8 21:58:01 10° NW 22:01:56 38° WSW 22:02:45 34° SW
Cosmos 676 Rocket 4.3 22:02:01 44° ESE 22:02:11 44° ESE 22:07:14 10° NNE
Cosmos 1758 Rocket 3.8 22:04:10 50° E 22:04:10 50° E 22:08:10 10° NNE
Abrixas rocket 4.3 22:10:16 10° WNW 22:12:14 22° WSW 22:12:14 22° WSW
ARGOS 3.1 22:14:47 56° SSE 22:15:57 81° ENE 22:21:24 10° N
Cosmos 1825 Rocket 4.2 22:20:09 39° SW 22:21:24 52° W 22:25:45 10° N
CZ-4C R/B 3.7 22:22:05 62° NE 22:22:05 62° NE 22:25:48 10° N
ISS -0.2 22:19:45 10° WNW 22:21:57 17° NNW 22:24:09 10° NNE
Cosmos 2369 Rocket 2.1 22:18:48 10° NNW 22:24:29 76° ENE 22:25:15 64° SE
ATLAS 3B R/B 3.1 22:17:04 10° SW 22:24:46 76° WNW 22:32:23 10° NNE
NOAA 11 4.1 22:31:39 64° SSW 22:32:29 78° WSW 22:37:55 10° NNW
Cosmos 407 Rocket 3.7 22:31:34 42° SW 22:33:17 66° WNW 22:38:30 10° N
Atlas Centaur 2 3.0 22:27:37 10° W 22:35:26 67° S 22:38:00 47° ESE
SL-08 RB Rocket 3.8 22:37:33 68° W 22:37:33 68° W 22:41:58 10° NNW
USA 234 3.2 22:35:50 55° SE 22:37:28 86° NE 22:44:04 10° NW
Cosmos 1953 4.0 22:40:18 10° N 22:42:23 26° NNE 22:42:23 26° NNE
Landsat 7 3.9 22:45:23 75° NW 22:45:23 75° NW 22:49:49 10° NNW
Spot 4 4.4 22:48:23 50° NE 22:48:23 50° NE 22:52:20 10° N
COSMOS 2406 3.7 22:51:28 49° ENE 22:51:28 49° ENE 22:55:57 10° NNE
Cosmos 2263 4.0 22:45:12 10° NNW 22:50:51 90° WSW 22:50:53 89° SSE
Cosmos 1954 Rocket 4.0 22:52:49 78° WNW 22:52:49 78° WNW 22:58:08 10° NNE
Nadezhda 4 Rocket 4.0 22:53:12 61° E 22:53:12 61° E 22:59:23 10° NNE
Terra 2.2 23:01:40 61° NNW 23:01:40 61° NNW 23:05:37 10° NNW
USA 238 DEB 3.6 23:01:03 63° SSW 23:02:22 85° ESE 23:09:28 10° NNE
USA 238 3.6 23:01:14 64° SSW 23:02:28 84° ESE 23:09:34 10° NNE
CZ-4C R/B 4.3 23:12:00 15° ENE 23:12:00 15° ENE 23:13:05 10° NE
Lacrosse 4 Rocket 4.0 23:15:31 14° W 23:17:08 17° NW 23:19:49 10° NNW
H-2A R/B 2.7 23:18:56 46° WNW 23:18:56 46° WNW 23:23:03 10° NNW
Cosmos 1943 Rocket 2.5 23:23:16 10° NNW 23:27:52 61° NW 23:27:52 61° NW
Cosmos 1607 4.1 23:40:55 68° NW 23:40:55 68° NW 23:47:02 10° NNE
Cosmos 1656 Rocket 4.3 23:38:04 10° NNW 23:42:37 52° NNE 23:42:37 52° NNE
Meteor 2-5 Rocket 4.2 23:48:01 60° N 23:48:01 60° N 23:52:42 10° N
